Hourly Data Report for October 30, 2015

All times are specified in Local Standard Time (LST). Add 1 hour to adjust for Daylight Saving Time where and when it is observed.

QIKIQTARJUAQ A
NUNAVUT

67°32'48.000" N
64°01'54.000" W
5.50 m
2400577
YVM

Download Data

Hourly Data (October 2015)
Hourly Data Report for October 30, 2015
Temp Definition
°C
Dew Point Temp Definition
°C
Rel Hum Definition
%
Wind Dir Definition
10's deg

Wind Spd Definition
km/h
Visibility Definition
km
Stn Press Definition
kPa
Hmdx Definition


Wind Chill Definition


Weather Definition


TIME
00:00 Legend Double Dagger -11.0 -17.5 59 18 15 16.1 100.55   -18 LegendNANA
01:00 Legend Double Dagger -11.4 -18.0 59 18 13 16.1 100.56   -18 LegendNANA
02:00 Legend Double Dagger -11.9 -18.3 59 16 17 16.1 100.55   -20 LegendNANA
03:00 Legend Double Dagger -12.1 -19.4 55 18 13 16.1 100.56   -19 LegendNANA
04:00 Legend Double Dagger -12.9 -18.6 63 14 9 16.1 100.56   -18 LegendNANA
05:00 Legend Double Dagger -12.7 -18.8 61 14 8 16.1 100.55   -18 LegendNANA
06:00 Legend Double Dagger -11.7 -18.5 58 20 15 16.1 100.52   -19 LegendNANA
07:00 Legend Double Dagger -12.3 -19.6 55 19 9 16.1 100.50   -18 LegendNANA
08:00 Legend Double Dagger -11.4 -18.3 57 14 5 16.1 100.47   -15 LegendNANA
09:00 Legend Double Dagger -11.2 -17.4 60 14 5 14.5 100.45   -14 LegendNANA
10:00 Legend Double Dagger -9.6 -14.4 68 20 4 16.1 100.42   -12 LegendNANA
11:00 Legend Double Dagger -8.9 -16.4 55 12 4 16.1 100.39   -11 LegendNANA
12:00 Legend Double Dagger -8.8 -14.0 66 14 8 16.1 100.37   -13 LegendNANA
13:00 Legend Double Dagger -8.6 -13.3 69 17 8 16.1 100.33   -13 LegendNANA
14:00 Legend Double Dagger -9.5 -13.3 74 11 5 16.1 100.29   -12 LegendNANA
15:00 Legend Double Dagger -8.8 -12.5 75 12 5 16.1 100.27   -12 LegendNANA
16:00 Legend Double Dagger -8.0 -11.7 75 LegendMM 4 9.7 100.24   -10 Haze
17:00 Legend Double Dagger -8.3 -11.3 79 16 8 16.1 100.19   -12 LegendNANA
18:00 Legend Double Dagger -7.8 -10.1 84 11 5 16.1 100.16   -10 Snow
19:00 Legend Double Dagger -7.8 -9.9 85 14 5 16.1 100.14   -10 Snow
20:00 Legend Double Dagger -7.5 -9.6 85 12 5 16.1 100.12   -10 Snow
21:00 Legend Double Dagger -7.1 -9.2 85 14 4 16.1 100.08   -9 Snow
22:00 Legend Double Dagger -7.1 -9.1 86 14 5 16.1 100.06   -10 LegendNANA
23:00 Legend Double Dagger -6.7 -9.0 84 12 4 16.1 100.02   -9 Snow

Notes on Data Quality.

Legend

  • E = Estimated
  • M = Missing
  • NA = Not Available
  • ‡ = Partner data that is not subject to review by the National Climate Archives
Date modified: